When you browse on this site, cookies collect data to enhance your experience and personalize the content and advertising you see.
Visit our Privacy Policy to learn more. By continuing to use the site, you agree to this use of cookies and data.
  • In Portugal
  • List of Countries
  • For 7 days
  • Water Temperature
  • Weather Map
  • Weather Widgets
  • user-avatar
    Login

    Hourly Weather Klagenfurt

    Today, 20 August, Tuesday

    Time Temperature Precipitation Wind Pressure Humidity
    00:00 +18°C° 0 mm 1 mps 692 mmHg 83%
    01:00 +15°C° 0 mm 0 mps 692 mmHg 82%
    02:00 +15°C° 0 mm 0 mps 692 mmHg 83%
    03:00 +15°C° 0 mm 0 mps 692 mmHg 84%
    04:00 +15°C° 0 mm 0 mps 692 mmHg 85%
    05:00 +16°C° 0 mm 0 mps 693 mmHg 84%
    06:00 +17°C° 0 mm 0 mps 693 mmHg 84%
    07:00 +18°C° 0 mm 0 mps 693 mmHg 83%
    08:00 +20°C° 0 mm 0 mps 693 mmHg 75%
    09:00 +24°C° 0 mm 1 mps 694 mmHg 68%
    10:00 +26°C° 0 mm 1 mps 694 mmHg 60%
    11:00 +27°C° 0 mm 1 mps 694 mmHg 56%
    12:00 +28°C° 0 mm 1 mps 694 mmHg 51%
    13:00 +29°C° 0 mm 2 mps 694 mmHg 47%
    14:00 +29°C° 0 mm 2 mps 694 mmHg 47%
    15:00 +29°C° 0 mm 2 mps 693 mmHg 47%
    16:00 +29°C° 0 mm 2 mps 693 mmHg 47%
    17:00 +26°C° 0 mm 2 mps 693 mmHg 55%
    18:00 +24°C° 0 mm 1 mps 692 mmHg 64%
    19:00 +21°C° 0 mm 1 mps 692 mmHg 73%
    20:00 +21°C° 0 mm 1 mps 692 mmHg 71%
    21:00 +20°C° 0 mm 1 mps 692 mmHg 69%
    22:00 +19°C° 0 mm 1 mps 692 mmHg 67%
    23:00 +19°C° 0 mm 1 mps 692 mmHg 68%

    Tomorrow, 21 August, Wednesday

    Time Temperature Precipitation Wind Pressure Humidity
    00:00 +18°C° 0 mm 1 mps 692 mmHg 68%
    01:00 +18°C° 0 mm 1 mps 692 mmHg 68%
    02:00 +18°C° 0 mm 1 mps 693 mmHg 70%
    03:00 +16°C° 0 mm 1 mps 693 mmHg 72%
    04:00 +16°C° 0 mm 1 mps 693 mmHg 74%
    05:00 +18°C° 0 mm 1 mps 694 mmHg 77%
    06:00 +18°C° 0 mm 1 mps 694 mmHg 79%
    07:00 +19°C° 0 mm 1 mps 695 mmHg 82%
    08:00 +19°C° 0.1 mm 1 mps 695 mmHg 82%
    09:00 +20°C° 0.1 mm 1 mps 696 mmHg 81%
    10:00 +20°C° 0.1 mm 1 mps 696 mmHg 81%
    11:00 +21°C° 0.1 mm 1 mps 696 mmHg 80%
    12:00 +21°C° 0.1 mm 1 mps 696 mmHg 79%
    13:00 +20°C° 0.1 mm 2 mps 696 mmHg 78%
    14:00 +20°C° 0.1 mm 2 mps 696 mmHg 78%
    15:00 +22°C° 0.1 mm 1 mps 695 mmHg 79%
    16:00 +22°C° 0.1 mm 1 mps 695 mmHg 79%
    17:00 +21°C° 0.1 mm 1 mps 695 mmHg 83%
    18:00 +20°C° 0.1 mm 1 mps 695 mmHg 88%
    19:00 +19°C° 0.1 mm 1 mps 695 mmHg 92%
    20:00 +18°C° 0 mm 1 mps 695 mmHg 93%
    21:00 +18°C° 0 mm 1 mps 695 mmHg 94%
    22:00 +15°C° 0 mm 0 mps 695 mmHg 95%
    23:00 +15°C° 0 mm 0 mps 695 mmHg 95%

    Day after tomorrow, 22 August, Thursday

    Time Temperature Precipitation Wind Pressure Humidity
    00:00 +15°C° 0 mm 0 mps 695 mmHg 95%
    01:00 +14°C° 0 mm 0 mps 695 mmHg 96%
    02:00 +14°C° 0 mm 0 mps 694 mmHg 96%
    03:00 +14°C° 0 mm 0 mps 694 mmHg 95%
    04:00 +13°C° 0 mm 0 mps 694 mmHg 95%
    05:00 +14°C° 0 mm 0 mps 694 mmHg 93%
    06:00 +15°C° 0 mm 0 mps 694 mmHg 91%
    07:00 +15°C° 0 mm 0 mps 695 mmHg 89%
    08:00 +19°C° 0 mm 1 mps 695 mmHg 81%
    09:00 +21°C° 0 mm 1 mps 695 mmHg 73%
    10:00 +23°C° 0 mm 1 mps 696 mmHg 65%
    11:00 +24°C° 0 mm 1 mps 696 mmHg 61%
    12:00 +25°C° 0 mm 1 mps 696 mmHg 58%
    13:00 +26°C° 0 mm 1 mps 696 mmHg 54%
    14:00 +26°C° 0.1 mm 1 mps 695 mmHg 57%
    15:00 +25°C° 0.1 mm 1 mps 695 mmHg 59%
    16:00 +25°C° 0.1 mm 1 mps 695 mmHg 62%
    17:00 +23°C° 0.2 mm 1 mps 695 mmHg 70%
    18:00 +21°C° 0.2 mm 1 mps 695 mmHg 78%
    19:00 +19°C° 0.2 mm 1 mps 694 mmHg 86%
    20:00 +19°C° 0.2 mm 1 mps 695 mmHg 89%
    21:00 +18°C° 0.2 mm 1 mps 695 mmHg 91%
    22:00 +16°C° 0.2 mm 1 mps 695 mmHg 93%
    23:00 +16°C° 0.1 mm 1 mps 695 mmHg 93%

    23 August, Friday

    Time Temperature Precipitation Wind Pressure Humidity
    00:00 +16°C° 0.1 mm 1 mps 695 mmHg 93%
    01:00 +16°C° 0.1 mm 1 mps 695 mmHg 94%
    02:00 +15°C° 0 mm 1 mps 695 mmHg 94%
    03:00 +15°C° 0 mm 1 mps 695 mmHg 94%
    04:00 +15°C° 0 mm 1 mps 695 mmHg 95%
    05:00 +15°C° 0 mm 1 mps 695 mmHg 93%
    06:00 +16°C° 0 mm 1 mps 695 mmHg 91%
    07:00 +18°C° 0 mm 1 mps 695 mmHg 90%
    08:00 +19°C° 0 mm 1 mps 696 mmHg 82%
    09:00 +21°C° 0 mm 1 mps 696 mmHg 74%
    10:00 +23°C° 0 mm 1 mps 697 mmHg 67%
    11:00 +23°C° 0 mm 1 mps 696 mmHg 65%
    12:00 +24°C° 0 mm 1 mps 696 mmHg 62%
    13:00 +25°C° 0 mm 1 mps 696 mmHg 60%
    14:00 +25°C° 0.1 mm 1 mps 696 mmHg 61%
    15:00 +25°C° 0.1 mm 1 mps 695 mmHg 62%
    16:00 +25°C° 0.1 mm 2 mps 695 mmHg 63%
    17:00 +23°C° 0.1 mm 1 mps 695 mmHg 71%
    18:00 +21°C° 0.1 mm 1 mps 695 mmHg 80%
    19:00 +19°C° 0.1 mm 1 mps 694 mmHg 88%
    20:00 +19°C° 0.3 mm 1 mps 694 mmHg 90%
    21:00 +18°C° 0.3 mm 1 mps 694 mmHg 91%
    22:00 +18°C° 0.3 mm 1 mps 695 mmHg 92%
    23:00 +16°C° 0.4 mm 1 mps 694 mmHg 92%

    24 August, Saturday

    Time Temperature Precipitation Wind Pressure Humidity
    00:00 +16°C° 0.4 mm 1 mps 694 mmHg 93%
    01:00 +15°C° 0.4 mm 0 mps 694 mmHg 93%
    02:00 +15°C° 0.1 mm 0 mps 694 mmHg 94%
    03:00 +15°C° 0.1 mm 0 mps 694 mmHg 94%
    04:00 +15°C° 0.1 mm 0 mps 694 mmHg 94%
    05:00 +16°C° 0.1 mm 0 mps 694 mmHg 93%
    06:00 +16°C° 0.1 mm 0 mps 694 mmHg 92%
    07:00 +17°C° 0.1 mm 0 mps 694 mmHg 92%
    08:00 +20°C° 0.6 mm 1 mps 694 mmHg 87%
    09:00 +22°C° 0.6 mm 1 mps 695 mmHg 82%
    10:00 +23°C° 0.6 mm 1 mps 695 mmHg 77%
    11:00 +24°C° 0.9 mm 1 mps 695 mmHg 73%
    12:00 +25°C° 0.9 mm 1 mps 695 mmHg 70%
    13:00 +25°C° 0.9 mm 1 mps 694 mmHg 67%
    14:00 +25°C° 0.3 mm 1 mps 694 mmHg 65%
    15:00 +26°C° 0.3 mm 1 mps 694 mmHg 63%
    16:00 +26°C° 0.3 mm 1 mps 694 mmHg 61%
    17:00 +24°C° 0.7 mm 1 mps 693 mmHg 70%
    18:00 +22°C° 0.7 mm 1 mps 693 mmHg 79%
    19:00 +20°C° 0.7 mm 1 mps 692 mmHg 89%
    20:00 +19°C° 1 mm 1 mps 693 mmHg 90%
    21:00 +19°C° 1 mm 1 mps 693 mmHg 91%
    22:00 +18°C° 1 mm 1 mps 693 mmHg 92%
    23:00 +18°C° 0.3 mm 1 mps 693 mmHg 92%

    25 August, Sunday

    Time Temperature Precipitation Wind Pressure Humidity
    00:00 +16°C° 0.3 mm 0 mps 693 mmHg 92%
    01:00 +15°C° 0.3 mm 0 mps 693 mmHg 92%
    02:00 +16°C° 0.3 mm 1 mps 692 mmHg 93%
    03:00 +16°C° 0.3 mm 1 mps 692 mmHg 93%
    04:00 +16°C° 0.3 mm 1 mps 692 mmHg 93%
    05:00 +16°C° 0 mm 1 mps 692 mmHg 93%
    06:00 +16°C° 0 mm 0 mps 692 mmHg 92%
    07:00 +17°C° 0 mm 0 mps 692 mmHg 91%
    08:00 +19°C° 0.3 mm 0 mps 693 mmHg 84%
    09:00 +23°C° 0.3 mm 1 mps 693 mmHg 78%
    10:00 +25°C° 0.3 mm 1 mps 693 mmHg 71%
    11:00 +26°C° 0.9 mm 1 mps 693 mmHg 67%
    12:00 +26°C° 0.9 mm 1 mps 693 mmHg 64%
    13:00 +27°C° 0.9 mm 1 mps 693 mmHg 60%
    14:00 +27°C° 0.7 mm 1 mps 693 mmHg 62%
    15:00 +27°C° 0.7 mm 1 mps 692 mmHg 63%
    16:00 +26°C° 0.7 mm 1 mps 692 mmHg 65%
    17:00 +24°C° 0.8 mm 1 mps 692 mmHg 72%
    18:00 +22°C° 0.8 mm 1 mps 691 mmHg 79%
    19:00 +20°C° 0.8 mm 1 mps 691 mmHg 86%
    20:00 +20°C° 0.1 mm 1 mps 691 mmHg 86%
    21:00 +19°C° 0.1 mm 1 mps 691 mmHg 87%
    22:00 +19°C° 0.1 mm 1 mps 692 mmHg 87%
    23:00 +18°C° 0.1 mm 1 mps 691 mmHg 88%
    Show more